Regional Weather Roundup
Issued by NWS Tiyan, Guam

Home | Current Version | Previous Version | Text Only | Print | Product List | Glossary On
Versions: 1 2 3 4 5 6 7 8 9 10 11 12 13 14 15 16 17 18
000
ASGM40 PGUM 302110
RWRGUM
WEATHER ROUNDUP FOR THE MARIANAS
NATIONAL WEATHER SERVICE TIYAN GU
700 AM CHST SAT JAN 31 2015

GUZ001>004-302200-
MARIANA ISLANDS-

CITY           SKY/WX    TMP DP  RH WIND       PRES   REMARKS
GUAM AIRPORT   PTCLDY    77  73  88 NE5       29.87R
ANDERSEN AFB   PTCLDY    77  73  88 NE15      29.88R
ROTA AIRPORT   NOT AVBL
TINIAN AP      PTCLDY    79  73  83 E12       29.88
SAIPAN AP      MOCLDY    79  72  78 NE10G24   29.89R

$$



USA.gov is the U.S. government's official web portal to all federal, state and local government web resources and services.